| time (UTC) | temp F | wind direction | speed MPH | gust MPH | rain 1hr in | rain 24hr in | rain mn in | humidity % | barometer mb |
| 20260901152039 | 85 | 91 | 4.0 | 6.0 | 0.00 | 0.11 | 0.00 | 99 | 680.3 |
| 20260901151019 | 84 | 109 | 4.0 | 7.0 | 0.00 | 0.11 | 0.00 | 99 | 680.2 |
| 20260901150019 | 83 | 145 | 2.0 | 5.0 | 0.00 | 0.11 | 0.00 | 99 | 680.2 |
| 20260901145019 | 81 | 123 | 3.0 | 6.0 | 0.00 | 0.11 | 0.00 | 99 | 680.2 |
| 20260901144019 | 79 | 126 | 3.0 | 5.0 | 0.00 | 0.11 | 0.00 | 99 | 680.1 |
| 20260901142915 | 78 | 93 | 2.0 | 5.0 | 0.00 | 0.11 | 0.00 | 99 | 680.1 |
| 20260901142040 | 77 | 135 | 2.0 | 4.0 | 0.00 | 0.11 | 0.00 | 99 | 680.1 |
| 20260901141020 | 76 | 111 | 2.0 | 4.0 | 0.00 | 0.11 | 0.00 | 99 | 680.0 |
| 20260901140020 | 75 | 112 | 3.0 | 5.0 | 0.00 | 0.11 | 0.00 | 99 | 680.0 |
| 20260901135020 | 74 | 111 | 2.0 | 4.0 | 0.00 | 0.11 | 0.00 | 99 | 680.0 |
| 20260901134020 | 73 | 101 | 2.0 | 4.0 | 0.00 | 0.11 | 0.00 | 99 | 680.0 |
| 20260901133020 | 73 | 109 | 2.0 | 5.0 | 0.00 | 0.11 | 0.00 | 99 | 680.0 |
| 20260901131916 | 72 | 117 | 2.0 | 4.0 | 0.00 | 0.11 | 0.00 | 99 | 680.0 |
| 20260901131021 | 72 | 114 | 2.0 | 4.0 | 0.00 | 0.11 | 0.00 | 99 | 680.0 |
| 20260901130021 | 71 | 119 | 2.0 | 4.0 | 0.00 | 0.11 | 0.00 | 99 | 680.0 |
| 20260901125020 | 71 | 117 | 3.0 | 6.0 | 0.00 | 0.11 | 0.00 | 99 | 679.9 |
| 20260901124021 | 70 | 122 | 1.0 | 2.0 | 0.00 | 0.11 | 0.00 | 99 | 679.9 |
| 20260901123021 | 70 | 111 | 1.0 | 3.0 | 0.00 | 0.13 | 0.00 | 99 | 679.9 |
| 20260901122021 | 69 | 126 | 1.0 | 2.0 | 0.00 | 0.14 | 0.00 | 99 | 679.9 |
| 20260901121017 | 69 | 108 | 1.0 | 3.0 | 0.00 | 0.14 | 0.00 | 99 | 679.9 |
| 20260901115917 | 68 | 107 | 1.0 | 2.0 | 0.00 | 0.14 | 0.00 | 99 | 679.9 |
| 20260901114938 | 68 | 79 | 1.0 | 2.0 | 0.00 | 0.14 | 0.00 | 99 | 679.9 |
| 20260901113917 | 68 | 86 | 1.0 | 2.0 | 0.00 | 0.16 | 0.00 | 99 | 679.9 |
| 20260901112937 | 68 | 56 | 1.0 | 2.0 | 0.00 | 0.16 | 0.00 | 99 | 679.9 |
| 20260901111957 | 68 | 73 | 1.0 | 2.0 | 0.00 | 0.20 | 0.00 | 99 | 679.9 |
| 20260901110917 | 68 | 0.0 | 0.0 | 0.00 | 0.28 | 0.00 | 99 | 679.9 | |
| 20260901110018 | 68 | 85 | 0.0 | 2.0 | 0.00 | 0.35 | 0.00 | 99 | 679.9 |
| 20260901104938 | 68 | 70 | 0.0 | 1.0 | 0.00 | 0.37 | 0.00 | 99 | 679.9 |
| 20260901104018 | 68 | 117 | 0.0 | 1.0 | 0.00 | 0.39 | 0.00 | 99 | 679.9 |
| 20260901103018 | 68 | 104 | 0.0 | 1.0 | 0.00 | 0.39 | 0.00 | 99 | 679.9 |
| 20260901101939 | 69 | 90 | 1.0 | 2.0 | 0.00 | 0.40 | 0.00 | 99 | 679.9 |
| 20260901100936 | 69 | 101 | 1.0 | 2.0 | 0.00 | 0.42 | 0.00 | 99 | 679.9 |
| 20260901100058 | 69 | 119 | 1.0 | 2.0 | 0.00 | 0.42 | 0.00 | 99 | 679.9 |
| 20260901094919 | 69 | 124 | 1.0 | 2.0 | 0.00 | 0.42 | 0.00 | 99 | 679.9 |
| 20260901093939 | 69 | 118 | 1.0 | 3.0 | 0.00 | 0.42 | 0.00 | 99 | 679.9 |
| 20260901093019 | 69 | 110 | 1.0 | 3.0 | 0.00 | 0.42 | 0.00 | 99 | 679.9 |
| 20260901092018 | 69 | 93 | 1.0 | 2.0 | 0.00 | 0.44 | 0.00 | 99 | 679.9 |
| 20260901090919 | 69 | 91 | 1.0 | 2.0 | 0.00 | 0.44 | 0.00 | 99 | 679.9 |
| 20260901090039 | 69 | 87 | 2.0 | 3.0 | 0.00 | 0.44 | 0.00 | 99 | 679.9 |
| 20260901084920 | 70 | 100 | 2.0 | 4.0 | 0.00 | 0.44 | 0.00 | 99 | 679.9 |
| 20260901084015 | 70 | 109 | 1.0 | 3.0 | 0.00 | 0.44 | 0.00 | 99 | 679.9 |
| 20260901082937 | 70 | 96 | 2.0 | 3.0 | 0.00 | 0.44 | 0.00 | 99 | 679.9 |
| 20260901081920 | 70 | 83 | 2.0 | 4.0 | 0.00 | 0.44 | 0.00 | 99 | 679.9 |
| 20260901080920 | 70 | 81 | 2.0 | 4.0 | 0.00 | 0.44 | 0.00 | 99 | 679.9 |
| 20260901075920 | 70 | 95 | 2.0 | 6.0 | 0.00 | 0.44 | 0.00 | 99 | 679.9 |
| 20260901074920 | 70 | 89 | 2.0 | 3.0 | 0.00 | 0.44 | 0.00 | 99 | 679.9 |
| 20260901074020 | 70 | 80 | 2.0 | 2.0 | 0.00 | 0.44 | 0.00 | 99 | 679.9 |
| 20260901072921 | 70 | 93 | 1.0 | 2.0 | 0.00 | 0.44 | 0.00 | 99 | 679.9 |
| 20260901072021 | 70 | 71 | 1.0 | 2.0 | 0.00 | 0.48 | 0.00 | 99 | 679.9 |
| 20260901070941 | 70 | 19 | 1.0 | 3.0 | 0.00 | 0.49 | 0.00 | 99 | 679.9 |
| 20260901070021 | 70 | 14 | 1.0 | 3.0 | 0.00 | 0.49 | 0.00 | 99 | 679.9 |
| 20260901065041 | 70 | 36 | 2.0 | 2.0 | 0.00 | 0.49 | 0.00 | 99 | 679.9 |
| 20260901063921 | 70 | 56 | 1.0 | 3.0 | 0.00 | 0.49 | 0.00 | 99 | 679.9 |
| 20260901062921 | 70 | 77 | 2.0 | 5.0 | 0.00 | 0.53 | 0.00 | 99 | 679.9 |
| 20260901061943 | 70 | 28 | 2.0 | 4.0 | 0.00 | 0.60 | 0.00 | 99 | 679.9 |
| 20260901060921 | 70 | 3 | 3.0 | 4.0 | 0.00 | 0.60 | 0.00 | 99 | 679.9 |
| 20260901055927 | 70 | 15 | 3.0 | 3.0 | 0.00 | 0.60 | 0.00 | 99 | 679.9 |
| 20260901054922 | 70 | 15 | 2.0 | 4.0 | 0.00 | 0.60 | 0.00 | 99 | 679.9 |
| 20260901053922 | 70 | 20 | 1.0 | 4.0 | 0.00 | 0.60 | 0.00 | 99 | 679.9 |
| 20260901052922 | 70 | 17 | 4.0 | 6.0 | 0.00 | 0.60 | 0.00 | 99 | 679.9 |
| 20260901051922 | 70 | 8 | 4.0 | 6.0 | 0.00 | 0.60 | 0.00 | 99 | 679.9 |
| 20260901051043 | 70 | 10 | 4.0 | 5.0 | 0.00 | 0.60 | 0.00 | 99 | 679.9 |
| 20260901050023 | 70 | 8 | 3.0 | 4.0 | 0.00 | 0.60 | 0.00 | 99 | 679.9 |
| 20260901044923 | 70 | 9 | 4.0 | 5.0 | 0.00 | 0.60 | 0.00 | 99 | 679.9 |
| 20260901043923 | 70 | 6 | 4.0 | 5.0 | 0.00 | 0.60 | 0.00 | 99 | 679.9 |
| 20260901042938 | 70 | 8 | 3.0 | 5.0 | 0.00 | 0.60 | 0.00 | 99 | 679.9 |
| 20260901041923 | 70 | 0 | 2.0 | 3.0 | 0.00 | 0.60 | 0.00 | 99 | 679.9 |
| 20260901040923 | 70 | 360 | 3.0 | 4.0 | 0.00 | 0.60 | 0.00 | 99 | 679.9 |
| 20260901040043 | 70 | 5 | 3.0 | 5.0 | 0.00 | 0.60 | 0.00 | 99 | 679.9 |
| 20260901034924 | 70 | 3 | 3.0 | 5.0 | 0.00 | 0.60 | 0.60 | 99 | 679.9 |
| 20260901033923 | 70 | 8 | 3.0 | 4.0 | 0.00 | 0.60 | 0.60 | 99 | 679.9 |
| 20260901032924 | 70 | 6 | 3.0 | 4.0 | 0.00 | 0.60 | 0.60 | 99 | 680.0 |
| 20260901031924 | 70 | 0.0 | 0.0 | 0.00 | 0.60 | 0.60 | 99 | 679.9 | |
| 20260901030924 | 71 | 6 | 4.0 | 7.0 | 0.00 | 0.60 | 0.60 | 99 | 679.9 |
| 20260901025924 | 71 | 0.0 | 0.0 | 0.00 | 0.60 | 0.60 | 99 | 680.0 | |
| 20260901024924 | 71 | 9 | 2.0 | 4.0 | 0.00 | 0.60 | 0.60 | 99 | 679.9 |
| 20260901024024 | 71 | 358 | 2.0 | 3.0 | 0.00 | 0.60 | 0.60 | 99 | 679.9 |
| 20260901022945 | 71 | 0.0 | 0.0 | 0.00 | 0.60 | 0.60 | 99 | 680.0 | |
| 20260901022024 | 71 | 0 | 2.0 | 4.0 | 0.00 | 0.60 | 0.60 | 99 | 679.9 |
| 20260901021025 | 71 | 6 | 2.0 | 5.0 | 0.00 | 0.60 | 0.60 | 99 | 680.0 |
| 20260901020045 | 71 | 4 | 2.0 | 3.0 | 0.00 | 0.60 | 0.60 | 99 | 680.0 |
| 20260901015025 | 71 | 357 | 2.0 | 3.0 | 0.00 | 0.60 | 0.60 | 99 | 680.0 |
| 20260901013925 | 71 | 358 | 2.0 | 4.0 | 0.00 | 0.60 | 0.60 | 99 | 680.0 |
| 20260901013046 | 71 | 351 | 2.0 | 3.0 | 0.00 | 0.61 | 0.60 | 99 | 680.0 |
| 20260901011930 | 71 | 355 | 2.0 | 3.0 | 0.00 | 0.64 | 0.60 | 99 | 680.0 |
| 20260901010926 | 71 | 344 | 2.0 | 3.0 | 0.00 | 0.65 | 0.60 | 99 | 680.0 |
| 20260901010026 | 71 | 347 | 2.0 | 3.0 | 0.00 | 0.67 | 0.60 | 99 | 680.0 |
| 20260901005026 | 72 | 349 | 3.0 | 5.0 | 0.00 | 0.70 | 0.60 | 99 | 680.0 |
| 20260901004026 | 72 | 353 | 3.0 | 4.0 | 0.00 | 0.76 | 0.60 | 99 | 680.0 |
| 20260901002926 | 72 | 0.0 | 0.0 | 0.00 | 0.77 | 0.60 | 99 | 680.0 | |
| 20260901002026 | 72 | 6 | 3.0 | 6.0 | 0.00 | 0.81 | 0.60 | 99 | 680.0 |
| 20260901000927 | 72 | 3 | 3.0 | 5.0 | 0.00 | 0.82 | 0.60 | 99 | 680.0 |
| 20260831235927 | 73 | 5 | 3.0 | 6.0 | 0.00 | 0.82 | 0.60 | 99 | 680.0 |
| 20260831234927 | 73 | 14 | 4.0 | 5.0 | 0.00 | 0.83 | 0.60 | 99 | 680.0 |
| 20260831233932 | 73 | 1 | 3.0 | 5.0 | 0.00 | 0.83 | 0.60 | 99 | 680.0 |
| 20260831233027 | 73 | 353 | 3.0 | 4.0 | 0.00 | 0.84 | 0.60 | 99 | 680.0 |
| 20260831232027 | 73 | 19 | 3.0 | 5.0 | 0.00 | 0.84 | 0.60 | 99 | 680.0 |
| 20260831230927 | 73 | 360 | 2.0 | 4.0 | 0.00 | 0.84 | 0.60 | 99 | 680.0 |
| 20260831230027 | 73 | 355 | 2.0 | 3.0 | 0.00 | 0.85 | 0.60 | 99 | 680.0 |
| 20260831225047 | 74 | 1 | 2.0 | 4.0 | 0.00 | 0.85 | 0.60 | 99 | 680.0 |
| 20260831223928 | 74 | 9 | 2.0 | 4.0 | 0.00 | 0.85 | 0.60 | 99 | 680.0 |
| 20260831223028 | 74 | 346 | 2.0 | 2.0 | 0.00 | 0.85 | 0.60 | 99 | 680.0 |
| 20260831221943 | 74 | 343 | 1.0 | 3.0 | 0.00 | 0.86 | 0.60 | 99 | 680.0 |
| 20260831220948 | 74 | 3 | 1.0 | 3.0 | 0.00 | 0.88 | 0.60 | 99 | 680.0 |
| 20260831220028 | 74 | 357 | 1.0 | 3.0 | 0.00 | 0.88 | 0.60 | 99 | 680.0 |
| 20260831214928 | 74 | 346 | 2.0 | 3.0 | 0.00 | 0.88 | 0.60 | 99 | 680.0 |
| 20260831213929 | 75 | 359 | 1.0 | 3.0 | 0.00 | 0.90 | 0.60 | 99 | 680.0 |
| 20260831212933 | 75 | 336 | 2.0 | 3.0 | 0.00 | 0.93 | 0.60 | 99 | 680.0 |
| 20260831211929 | 75 | 353 | 3.0 | 6.0 | 0.00 | 0.95 | 0.60 | 99 | 680.0 |
| 20260831210929 | 74 | 332 | 2.0 | 3.0 | 0.00 | 0.95 | 0.60 | 99 | 680.0 |
| 20260831205934 | 74 | 319 | 3.0 | 3.0 | 0.00 | 0.96 | 0.60 | 99 | 680.0 |
| 20260831205049 | 73 | 325 | 1.0 | 2.0 | 0.00 | 0.97 | 0.60 | 99 | 680.0 |
| 20260831204049 | 73 | 331 | 2.0 | 3.0 | 0.00 | 0.98 | 0.60 | 99 | 680.0 |
| 20260831203029 | 73 | 351 | 1.0 | 3.0 | 0.01 | 0.98 | 0.60 | 99 | 680.0 |
| 20260831202030 | 73 | 14 | 1.0 | 2.0 | 0.01 | 1.00 | 0.60 | 99 | 680.0 |
| 20260831201029 | 74 | 341 | 0.0 | 1.0 | 0.01 | 1.02 | 0.60 | 99 | 680.0 |
| 20260831195930 | 74 | 360 | 1.0 | 3.0 | 0.01 | 1.07 | 0.60 | 99 | 680.0 |
| 20260831194930 | 74 | 13 | 1.0 | 3.0 | 0.01 | 1.08 | 0.60 | 99 | 680.0 |
| 20260831194030 | 74 | 115 | 1.0 | 3.0 | 0.01 | 1.10 | 0.60 | 99 | 680.0 |
| 20260831192931 | 74 | 15 | 1.0 | 3.0 | 0.01 | 1.09 | 0.60 | 99 | 680.0 |
| 20260831191930 | 74 | 80 | 1.0 | 2.0 | 0.01 | 1.09 | 0.60 | 99 | 680.0 |
| 20260831191000 | 74 | 57 | 1.0 | 2.0 | 0.01 | 1.13 | 0.60 | 99 | 680.0 |
| 20260831185931 | 74 | 112 | 1.0 | 2.0 | 0.00 | 1.14 | 0.59 | 99 | 680.0 |
| 20260831185031 | 75 | 121 | 1.0 | 3.0 | 0.00 | 1.14 | 0.59 | 99 | 680.0 |
| 20260831184016 | 75 | 131 | 2.0 | 4.0 | 0.00 | 1.15 | 0.59 | 99 | 680.0 |
| 20260831183016 | 74 | 144 | 2.0 | 3.0 | 0.00 | 1.15 | 0.59 | 99 | 680.0 |
| 20260831181931 | 74 | 154 | 2.0 | 3.0 | 0.00 | 1.15 | 0.59 | 99 | 680.0 |
| 20260831180931 | 74 | 152 | 1.0 | 3.0 | 0.00 | 1.15 | 0.59 | 99 | 680.0 |
| 20260831175931 | 73 | 0.0 | 0.0 | 0.01 | 1.16 | 0.59 | 99 | 680.0 | |
| 20260831174946 | 73 | 104 | 0.0 | 1.0 | 0.01 | 1.16 | 0.59 | 99 | 680.0 |
| 20260831173932 | 73 | 59 | 0.0 | 1.0 | 0.03 | 1.17 | 0.59 | 99 | 680.0 |
| 20260831173016 | 72 | 245 | 0.0 | 1.0 | 0.03 | 1.17 | 0.59 | 99 | 680.0 |
| 20260831171932 | 72 | 0.0 | 0.0 | 0.03 | 1.18 | 0.59 | 99 | 680.0 | |
| 20260831171017 | 72 | 142 | 0.0 | 1.0 | 0.05 | 1.20 | 0.59 | 99 | 680.0 |
| 20260831170017 | 73 | 132 | 0.0 | 2.0 | 0.07 | 1.24 | 0.59 | 99 | 680.0 |
| 20260831165017 | 73 | 154 | 2.0 | 4.0 | 0.08 | 1.30 | 0.58 | 99 | 680.0 |
| 20260831164017 | 73 | 124 | 2.0 | 5.0 | 0.06 | 1.36 | 0.56 | 99 | 680.0 |
| 20260831163018 | 74 | 125 | 3.0 | 5.0 | 0.07 | 1.42 | 0.56 | 99 | 680.0 |
| 20260831162038 | 74 | 124 | 4.0 | 6.0 | 0.06 | 1.46 | 0.55 | 99 | 680.0 |
| 20260831161038 | 75 | 129 | 2.0 | 4.0 | 0.04 | 1.47 | 0.54 | 99 | 680.0 |
| 20260831160019 | 75 | 114 | 3.0 | 6.0 | 0.02 | 1.46 | 0.51 | 99 | 680.1 |
| 20260831154933 | 76 | 98 | 2.0 | 5.0 | 0.01 | 1.45 | 0.50 | 99 | 680.1 |
| 20260831153933 | 76 | 100 | 2.0 | 5.0 | 0.01 | 1.45 | 0.50 | 99 | 680.1 |
| 20260831152933 | 77 | 95 | 1.0 | 3.0 | 0.00 | 1.44 | 0.49 | 99 | 680.1 |